DW1762 Weather Reports


time (UTC)temp
C
wind
direction
speed
KPH
gust
KPH
rain 1hr
cm
rain 24hr
cm
rain mn
cm
humidity
%
barometer
mb
20260906155205 34 90 0.0 6.4 0.00 0.00 0.00 47 1017.8
20260906154804 34 73 0.0 3.2 0.00 0.00 0.00 48 1017.7
20260906154404 33 224 1.6 4.8 0.00 0.00 0.00 49 1017.7
20260906154005 33 216 1.6 4.8 0.00 0.00 0.00 50 1017.7
20260906153605 33 162 1.6 4.8 0.00 0.00 0.00 52 1017.8
20260906152404 32 348 0.0 3.2 0.00 0.00 0.00 55 1017.7
20260906151204 32 117 1.6 6.4 0.00 0.00 0.00 54 1017.8
20260906150804 32 112 1.6 4.8 0.00 0.00 0.00 56 1017.8
20260906150004 31 143 1.6 4.8 0.00 0.00 0.00 56 1017.7
20260906145204 31 101 1.6 4.8 0.00 0.00 0.00 58 1017.8
20260906144804 31 103 1.6 4.8 0.00 0.00 0.00 59 1017.7
20260906144404 31 106 0.0 4.8 0.00 0.00 0.00 59 1017.7
20260906144004 30 137 1.6 3.2 0.00 0.00 0.00 62 1017.8
20260906143604 30 144 1.6 3.2 0.00 0.00 0.00 63 1017.8
20260906143204 30 139 0.0 3.2 0.00 0.00 0.00 64 1017.8
20260906142804 29 211 0.0 3.2 0.00 0.00 0.00 66 1017.8
20260906142403 28 221 0.0 3.2 0.00 0.00 0.00 67 1017.7
20260906142005 28 0 0.0 0.0 0.00 0.00 0.00 69 1017.7
20260906141203 27 0 0.0 0.0 0.00 0.00 0.00 72 1017.7
20260906140804 27 0 0.0 0.0 0.00 0.00 0.00 73 1017.7
20260906140404 27 244 0.0 1.6 0.00 0.00 0.00 74 1017.8
20260906140004 26 235 0.0 1.6 0.00 0.00 0.00 75 1017.7
20260906135604 26 235 0.0 1.6 0.00 0.00 0.00 76 1017.7
20260906135205 26 207 0.0 1.6 0.00 0.00 0.00 78 1017.7
20260906134804 25 206 0.0 1.6 0.00 0.00 0.00 79 1017.6
20260906134404 25 0 0.0 0.0 0.00 0.00 0.00 81 1017.6
20260906134004 24 0 0.0 0.0 0.00 0.00 0.00 82 1017.6
20260906133203 23 0 0.0 0.0 0.00 0.00 0.00 85 1017.6
20260906132804 23 0 0.0 0.0 0.00 0.00 0.00 85 1017.6
20260906132405 23 0 0.0 0.0 0.00 0.00 0.00 86 1017.5
20260906132005 23 0 0.0 0.0 0.00 0.00 0.00 87 1017.5
20260906131605 22 0 0.0 0.0 0.00 0.00 0.00 88 1017.5
20260906131204 22 0 0.0 0.0 0.00 0.00 0.00 89 1017.5
20260906130404 22 0 0.0 0.0 0.00 0.00 0.00 90 1017.4
20260906130005 22 0 0.0 0.0 0.00 0.00 0.00 91 1017.4
20260906125604 21 0 0.0 0.0 0.00 0.00 0.00 91 1017.3
20260906125204 21 0 0.0 0.0 0.00 0.00 0.00 92 1017.3
20260906124805 21 0 0.0 0.0 0.00 0.00 0.00 92 1017.3
20260906124404 21 0 0.0 0.0 0.00 0.00 0.00 93 1017.3
20260906124005 20 0 0.0 0.0 0.00 0.00 0.00 92 1017.2
20260906123604 20 0 0.0 0.0 0.00 0.00 0.00 92 1017.1
20260906123204 20 355 0.0 1.6 0.00 0.00 0.00 93 1017.0
20260906122804 20 355 0.0 1.6 0.00 0.00 0.00 93 1017.0
20260906122004 20 0 0.0 0.0 0.00 0.00 0.00 93 1017.1
20260906121604 20 0 0.0 0.0 0.00 0.00 0.00 92 1016.9
20260906121204 20 0 0.0 0.0 0.00 0.00 0.00 92 1016.9
20260906120804 20 0 0.0 0.0 0.00 0.00 0.00 93 1016.9
20260906120404 20 0 0.0 0.0 0.00 0.00 0.00 93 1016.9
20260906120004 20 0 0.0 0.0 0.00 0.00 0.00 93 1016.8
20260906115604 20 0 0.0 0.0 0.00 0.00 0.00 92 1016.8
20260906115204 20 0 0.0 0.0 0.00 0.00 0.00 93 1016.8
20260906114804 20 0 0.0 0.0 0.00 0.00 0.00 93 1016.7
20260906114405 20 0 0.0 0.0 0.00 0.00 0.00 92 1016.7
20260906114004 20 0 0.0 0.0 0.00 0.00 0.00 91 1016.7
20260906113604 20 0 0.0 0.0 0.00 0.00 0.00 91 1016.5
20260906113204 20 0 0.0 0.0 0.00 0.00 0.00 92 1016.5
20260906112004 20 0 0.0 0.0 0.00 0.00 0.00 92 1016.4
20260906111204 20 0 0.0 0.0 0.00 0.00 0.00 91 1016.4
20260906110804 20 0 0.0 0.0 0.00 0.00 0.00 91 1016.3
20260906110404 21 0 0.0 0.0 0.00 0.00 0.00 91 1016.3
20260906105605 21 0 0.0 0.0 0.00 0.00 0.00 91 1016.3
20260906105204 21 0 0.0 0.0 0.00 0.00 0.00 91 1016.3
20260906104804 21 0 0.0 0.0 0.00 0.00 0.00 92 1016.3
20260906104405 21 0 0.0 0.0 0.00 0.00 0.00 92 1016.2
20260906104004 21 0 0.0 0.0 0.00 0.00 0.00 92 1016.2
20260906103604 20 0 0.0 0.0 0.00 0.00 0.00 92 1016.1
20260906103204 20 0 0.0 0.0 0.00 0.00 0.00 92 1016.1
20260906102805 21 0 0.0 0.0 0.00 0.00 0.00 91 1016.1
20260906102404 21 0 0.0 0.0 0.00 0.00 0.00 91 1016.1
20260906102004 21 0 0.0 0.0 0.00 0.00 0.00 91 1016.0
20260906101604 21 0 0.0 0.0 0.00 0.00 0.00 90 1016.0
20260906101204 21 0 0.0 0.0 0.00 0.00 0.00 90 1016.0
20260906100404 21 0 0.0 0.0 0.00 0.00 0.00 90 1016.0
20260906095604 21 0 0.0 0.0 0.00 0.00 0.00 90 1015.9
20260906095204 21 0 0.0 0.0 0.00 0.00 0.00 90 1015.9
20260906094805 21 0 0.0 0.0 0.00 0.00 0.00 90 1015.9
20260906094004 21 0 0.0 0.0 0.00 0.00 0.00 89 1015.9
20260906093605 21 0 0.0 0.0 0.00 0.00 0.00 89 1015.9
20260906093204 21 0 0.0 0.0 0.00 0.00 0.00 88 1015.7
20260906092804 21 0 0.0 0.0 0.00 0.00 0.00 88 1015.8
20260906092004 21 0 0.0 0.0 0.00 0.00 0.00 88 1015.7
20260906091604 21 0 0.0 0.0 0.00 0.00 0.00 88 1015.7
20260906091204 22 0 0.0 0.0 0.00 0.00 0.00 88 1015.7
20260906090404 22 0 0.0 0.0 0.00 0.00 0.00 88 1015.7
20260906090005 22 0 0.0 0.0 0.00 0.00 0.00 87 1015.7
20260906085204 22 0 0.0 0.0 0.00 0.00 0.00 84 1015.6
20260906084804 22 0 0.0 0.0 0.00 0.00 0.00 83 1015.6
20260906084004 23 0 0.0 0.0 0.00 0.00 0.00 84 1015.6
20260906083204 22 0 0.0 0.0 0.00 0.00 0.00 84 1015.6
20260906082804 22 0 0.0 0.0 0.00 0.00 0.00 84 1015.7
20260906082404 22 0 0.0 0.0 0.00 0.00 0.00 84 1015.7
20260906081605 22 0 0.0 0.0 0.00 0.00 0.00 85 1015.7
20260906081204 22 0 0.0 0.0 0.00 0.00 0.00 85 1015.7
20260906080804 22 0 0.0 0.0 0.00 0.00 0.00 86 1015.6
20260906080404 22 0 0.0 0.0 0.00 0.00 0.00 86 1015.6
20260906080005 22 0 0.0 0.0 0.00 0.00 0.00 86 1015.7
20260906075604 22 51 0.0 1.6 0.00 0.00 0.00 85 1015.7
20260906074804 22 55 0.0 1.6 0.00 0.00 0.00 84 1015.8
20260906074404 23 0 0.0 0.0 0.00 0.00 0.00 83 1015.7
20260906074004 23 0 0.0 0.0 0.00 0.00 0.00 82 1015.7
20260906073604 23 0 0.0 0.0 0.00 0.00 0.00 82 1015.7
20260906072804 23 0 0.0 0.0 0.00 0.00 0.00 82 1015.8
20260906072404 23 0 0.0 0.0 0.00 0.00 0.00 82 1015.8
20260906072005 23 0 0.0 0.0 0.00 0.00 0.00 82 1015.8
20260906071604 23 0 0.0 0.0 0.00 0.00 0.00 82 1015.9
20260906071204 23 0 0.0 0.0 0.00 0.00 0.00 82 1015.9
20260906070404 23 0 0.0 0.0 0.00 0.00 0.00 81 1015.8
20260906070006 23 0 0.0 0.0 0.00 0.00 0.00 80 1015.8
20260906065605 23 0 0.0 0.0 0.00 0.00 0.00 80 1015.9
20260906065204 23 0 0.0 0.0 0.00 0.00 0.00 80 1015.9
20260906064405 23 0 0.0 0.0 0.00 0.00 0.00 80 1016.0
20260906064004 23 0 0.0 0.0 0.00 0.00 0.00 80 1016.0
20260906063205 23 0 0.0 0.0 0.00 0.00 0.00 80 1016.0
20260906062805 23 0 0.0 0.0 0.00 0.00 0.00 80 1016.1
20260906062405 23 0 0.0 0.0 0.00 0.00 0.00 79 1016.0
20260906062005 24 0 0.0 0.0 0.00 0.00 0.00 79 1016.0
20260906061604 24 0 0.0 0.0 0.00 0.00 0.00 78 1016.0
20260906061204 24 0 0.0 0.0 0.00 0.00 0.00 78 1016.0
20260906060804 24 0 0.0 0.0 0.00 0.00 0.00 77 1016.1
20260906060405 24 0 0.0 0.0 0.00 0.00 0.00 77 1016.1
20260906060005 24 0 0.0 0.0 0.00 0.00 0.00 78 1016.1
20260906055604 24 0 0.0 0.0 0.00 0.00 0.00 77 1016.0
20260906054804 24 0 0.0 0.0 0.00 0.00 0.00 77 1016.0
20260906054405 24 0 0.0 0.0 0.00 0.00 0.00 77 1015.9
20260906054005 25 0 0.0 0.0 0.00 0.00 0.00 76 1015.9
20260906053604 25 0 0.0 0.0 0.00 0.00 0.00 76 1015.9
20260906053204 25 0 0.0 0.0 0.00 0.00 0.00 76 1015.9
20260906052804 25 0 0.0 0.0 0.00 0.00 0.00 75 1016.0
20260906052005 25 0 0.0 0.0 0.00 0.00 0.00 75 1015.8
20260906051205 25 0 0.0 0.0 0.00 0.00 0.00 75 1015.8
20260906050805 25 0 0.0 0.0 0.00 0.00 0.00 75 1015.8
20260906050404 25 0 0.0 0.0 0.00 0.00 0.00 75 1015.8
20260906050007 25 0 0.0 0.0 0.00 0.00 0.00 74 1015.9
20260906045604 25 0 0.0 0.0 0.00 0.00 0.00 73 1015.8
20260906045204 25 0 0.0 0.0 0.00 0.00 0.00 72 1015.8
20260906044805 25 0 0.0 0.0 0.00 0.00 0.00 72 1015.9
20260906043204 26 0 0.0 0.0 0.00 0.00 0.00 69 1015.7
20260906042805 26 0 0.0 0.0 0.00 0.00 0.00 69 1015.8
20260906042404 26 0 0.0 0.0 0.00 0.00 0.00 70 1015.8
20260906042004 26 0 0.0 0.0 0.00 0.00 0.00 70 1015.8
20260906041604 26 0 0.0 0.0 0.00 0.00 0.00 70 1015.9
20260906041205 26 0 0.0 0.0 0.00 0.00 0.00 69 1015.9
20260906040404 27 0 0.0 0.0 0.00 0.00 0.00 65 1015.8
20260906040004 27 0 0.0 0.0 0.00 0.00 0.00 63 1015.7
20260906035204 27 65 0.0 3.2 0.00 0.00 0.00 62 1015.7
20260906034804 28 70 1.6 3.2 0.00 0.00 0.00 62 1015.7
20260906034404 28 74 1.6 3.2 0.00 0.00 0.00 62 1015.7
20260906033605 28 72 1.6 3.2 0.00 0.00 0.00 61 1015.7
20260906032804 28 68 0.0 1.6 0.00 0.00 0.00 61 1015.7
20260906032404 28 68 1.6 1.6 0.00 0.00 0.00 61 1015.6
20260906032006 28 68 1.6 3.2 0.00 0.00 0.00 60 1015.6
20260906031604 28 68 1.6 3.2 0.00 0.00 0.00 60 1015.6
20260906031204 28 69 1.6 3.2 0.00 0.00 0.00 60 1015.7
20260906030804 28 68 1.6 3.2 0.00 0.00 0.00 60 1015.6
20260906030404 28 66 1.6 3.2 0.00 0.00 0.00 59 1015.5
20260906030005 28 66 1.6 3.2 0.00 0.00 0.00 59 1015.5
20260906025205 28 68 1.6 3.2 0.00 0.00 0.00 59 1015.4
20260906024805 28 68 1.6 3.2 0.00 0.00 0.00 58 1015.4
20260906024404 28 72 0.0 3.2 0.00 0.00 0.00 58 1015.4
20260906024004 28 0 0.0 0.0 0.00 0.00 0.00 59 1015.4
20260906023205 28 0 0.0 0.0 0.00 0.00 0.00 60 1015.3
20260906022805 28 0 0.0 0.0 0.00 0.00 0.00 60 1015.3
20260906022005 28 0 0.0 0.0 0.00 0.00 0.00 60 1015.2
20260906021605 28 0 0.0 0.0 0.00 0.00 0.00 60 1015.1
20260906020804 28 0 0.0 0.0 0.00 0.00 0.00 60 1015.0
20260906020005 28 0 0.0 0.0 0.00 0.00 0.00 59 1014.9
20260906015205 29 0 0.0 0.0 0.00 0.00 0.00 57 1014.7
20260906014404 30 0 0.0 0.0 0.00 0.00 0.00 53 1014.5
20260906014004 30 0 0.0 0.0 0.00 0.00 0.00 53 1014.6
20260906013604 30 0 0.0 0.0 0.00 0.00 0.00 51 1014.5
20260906012404 31 0 0.0 0.0 0.00 0.00 0.00 49 1014.3
20260906012005 31 0 0.0 0.0 0.00 0.00 0.00 49 1014.2
20260906011604 31 0 0.0 0.0 0.00 0.00 0.00 48 1014.2
20260906011204 31 0 0.0 0.0 0.00 0.00 0.00 47 1014.2
20260906010805 31 64 0.0 3.2 0.00 0.00 0.00 47 1014.1
20260906010404 32 65 1.6 3.2 0.00 0.00 0.00 47 1014.1
20260906010005 32 65 1.6 3.2 0.00 0.00 0.00 47 1014.1
20260906005604 32 65 1.6 3.2 0.00 0.00 0.00 47 1014.1
20260906005205 32 64 1.6 3.2 0.00 0.00 0.00 46 1014.1
20260906004805 32 63 1.6 3.2 0.00 0.00 0.00 46 1014.0
20260906004405 32 63 3.2 3.2 0.00 0.00 0.00 46 1014.0
20260906004006 32 63 3.2 3.2 0.00 0.00 0.00 46 1014.1
20260906003604 32 63 3.2 4.8 0.00 0.00 0.00 46 1014.1
20260906003204 32 63 3.2 4.8 0.00 0.00 0.00 46 1014.1
20260906002405 32 63 3.2 4.8 0.00 0.00 0.00 45 1014.1
20260906002005 32 63 3.2 4.8 0.00 0.00 0.00 45 1014.2
20260906001604 33 61 1.6 4.8 0.00 0.00 0.00 44 1014.2
20260906001204 33 58 1.6 4.8 0.00 0.00 0.00 44 1014.2
20260906000005 33 55 1.6 3.2 0.00 0.00 0.00 42 1014.2
20260905235605 34 55 1.6 3.2 0.00 0.00 0.00 42 1014.1
20260905235204 34 56 1.6 6.4 0.00 0.00 0.00 41 1014.2
20260905234804 34 59 1.6 6.4 0.00 0.00 0.00 41 1014.2
20260905234404 34 58 1.6 6.4 0.00 0.00 0.00 41 1014.2
20260905234005 35 53 1.6 4.8 0.00 0.00 0.00 41 1014.3
20260905233605 35 49 3.2 6.4 0.00 0.00 0.00 41 1014.3
20260905233205 35 46 4.8 9.7 0.00 0.00 0.00 41 1014.3
20260905232004 35 42 4.8 11.3 0.00 0.00 0.00 40 1014.3
20260905230005 39 198 0.0 4.8 0.00 0.00 0.00 30 1014.2
20260905225604 39 224 1.6 6.4 0.00 0.00 0.00 29 1014.0
20260905225205 39 217 1.6 6.4 0.00 0.00 0.00 29 1013.9
20260905224805 39 219 1.6 6.4 0.00 0.00 0.00 29 1013.9
20260905224405 39 217 1.6 6.4 0.00 0.00 0.00 29 1013.9
20260905224005 39 212 1.6 6.4 0.00 0.00 0.00 29 1013.8
20260905223604 40 224 1.6 6.4 0.00 0.00 0.00 29 1013.9
20260905223204 40 223 1.6 6.4 0.00 0.00 0.00 28 1013.8
20260905222804 40 120 0.0 4.8 0.00 0.00 0.00 28 1013.8
20260905222404 40 115 0.0 3.2 0.00 0.00 0.00 28 1013.8
20260905222005 40 124 1.6 6.4 0.00 0.00 0.00 29 1013.8
20260905221605 40 140 1.6 6.4 0.00 0.00 0.00 29 1013.8
20260905221205 40 166 0.0 3.2 0.00 0.00 0.00 28 1013.8
20260905220804 40 163 1.6 4.8 0.00 0.00 0.00 29 1013.7
20260905220404 39 148 1.6 6.4 0.00 0.00 0.00 29 1013.7
20260905220006 39 122 3.2 11.3 0.00 0.00 0.00 29 1013.8
20260905215205 38 87 3.2 11.3 0.00 0.00 0.00 30 1013.8
20260905214405 38 95 3.2 12.9 0.00 0.00 0.00 30 1013.9
20260905214005 38 85 4.8 12.9 0.00 0.00 0.00 30 1014.0
20260905213604 38 92 4.8 12.9 0.00 0.00 0.00 30 1013.9
20260905213205 38 92 4.8 12.9 0.00 0.00 0.00 30 1014.0
20260905212404 38 88 3.2 11.3 0.00 0.00 0.00 29 1014.0
20260905212005 39 103 1.6 9.7 0.00 0.00 0.00 29 1014.0
20260905211604 40 105 1.6 6.4 0.00 0.00 0.00 29 1014.1
20260905211204 39 105 1.6 4.8 0.00 0.00 0.00 29 1014.1
20260905210404 40 142 1.6 4.8 0.00 0.00 0.00 29 1014.3
20260905210004 40 208 1.6 9.7 0.00 0.00 0.00 29 1014.3
20260905205605 39 220 1.6 9.7 0.00 0.00 0.00 30 1014.3
20260905205204 39 220 1.6 9.7 0.00 0.00 0.00 29 1014.4
20260905204804 40 173 1.6 6.4 0.00 0.00 0.00 30 1014.5
20260905204004 40 114 1.6 6.4 0.00 0.00 0.00 29 1014.6
20260905203604 40 134 1.6 3.2 0.00 0.00 0.00 29 1014.7
20260905203205 40 249 1.6 6.4 0.00 0.00 0.00 29 1014.8
20260905202804 40 230 1.6 6.4 0.00 0.00 0.00 30 1014.9
20260905202405 39 213 1.6 6.4 0.00 0.00 0.00 29 1014.9
20260905202005 39 138 1.6 6.4 0.00 0.00 0.00 29 1014.9
20260905201604 40 122 1.6 4.8 0.00 0.00 0.00 30 1015.0
20260905201204 39 189 3.2 6.4 0.00 0.00 0.00 30 1015.1
20260905200804 39 204 3.2 6.4 0.00 0.00 0.00 29 1015.2
20260905200404 40 212 3.2 6.4 0.00 0.00 0.00 30 1015.2
20260905200005 39 215 3.2 6.4 0.00 0.00 0.00 30 1015.2
20260905195604 39 222 3.2 9.7 0.00 0.00 0.00 30 1015.3
20260905195204 39 200 3.2 9.7 0.00 0.00 0.00 30 1015.3
20260905194804 39 160 3.2 9.7 0.00 0.00 0.00 30 1015.4
20260905194404 39 135 3.2 9.7 0.00 0.00 0.00 30 1015.5
20260905194005 39 147 3.2 9.7 0.00 0.00 0.00 31 1015.5
20260905193604 38 161 3.2 11.3 0.00 0.00 0.00 31 1015.6
20260905193204 39 176 3.2 12.9 0.00 0.00 0.00 31 1015.7
20260905192804 38 176 3.2 12.9 0.00 0.00 0.00 31 1015.7
20260905192405 38 165 3.2 11.3 0.00 0.00 0.00 32 1015.7
20260905192006 39 212 3.2 11.3 0.00 0.00 0.00 31 1015.7
20260905191604 38 257 3.2 9.7 0.00 0.00 0.00 32 1015.8
20260905191204 38 255 3.2 6.4 0.00 0.00 0.00 32 1015.9
20260905190405 38 240 3.2 11.3 0.00 0.00 0.00 32 1016.0
20260905190005 38 276 1.6 9.7 0.00 0.00 0.00 32 1016.0
20260905185605 38 110 1.6 6.4 0.00 0.00 0.00 32 1016.1
20260905185204 38 172 3.2 9.7 0.00 0.00 0.00 34 1016.2
20260905184805 38 209 3.2 9.7 0.00 0.00 0.00 33 1016.3
20260905184404 38 220 1.6 9.7 0.00 0.00 0.00 32 1016.4
20260905184004 37 214 1.6 12.9 0.00 0.00 0.00 34 1016.5
20260905183605 37 208 3.2 12.9 0.00 0.00 0.00 34 1016.5
20260905183205 37 209 3.2 11.3 0.00 0.00 0.00 35 1016.6
20260905182804 37 205 3.2 11.3 0.00 0.00 0.00 34 1016.6
20260905182405 37 248 1.6 6.4 0.00 0.00 0.00 35 1016.7
20260905182004 37 257 3.2 11.3 0.00 0.00 0.00 36 1016.8
20260905181605 37 260 3.2 11.3 0.00 0.00 0.00 36 1016.9
20260905180805 37 308 1.6 11.3 0.00 0.00 0.00 36 1017.0
20260905180405 37 325 1.6 11.3 0.00 0.00 0.00 36 1017.0
20260905175605 37 300 3.2 11.3 0.00 0.00 0.00 37 1017.0
20260905174804 37 279 1.6 4.8 0.00 0.00 0.00 37 1017.0
20260905174005 36 133 1.6 6.4 0.00 0.00 0.00 40 1017.3
20260905173605 36 165 1.6 6.4 0.00 0.00 0.00 41 1017.3
20260905173204 36 246 1.6 9.7 0.00 0.00 0.00 40 1017.3
20260905172405 36 320 1.6 9.7 0.00 0.00 0.00 39 1017.5
20260905172005 36 309 3.2 9.7 0.00 0.00 0.00 39 1017.6
20260905171604 37 285 3.2 11.3 0.00 0.00 0.00 39 1017.7
20260905171205 37 258 1.6 11.3 0.00 0.00 0.00 42 1017.7
20260905170805 36 251 1.6 11.3 0.00 0.00 0.00 43 1017.6
20260905170404 36 236 1.6 11.3 0.00 0.00 0.00 43 1017.7
20260905170004 36 307 0.0 6.4 0.00 0.00 0.00 43 1017.7
20260905165604 35 311 1.6 6.4 0.00 0.00 0.00 44 1017.7
20260905165204 35 310 1.6 6.4 0.00 0.00 0.00 45 1017.7
20260905164805 35 289 3.2 6.4 0.00 0.00 0.00 46 1017.8
20260905164404 35 284 3.2 6.4 0.00 0.00 0.00 46 1017.8
20260905163605 35 296 1.6 9.7 0.00 0.00 0.00 44 1017.9
20260905163204 35 5 1.6 4.8 0.00 0.00 0.00 47 1017.9
20260905162404 35 347 1.6 11.3 0.00 0.00 0.00 47 1018.0
20260905162005 35 334 1.6 11.3 0.00 0.00 0.00 46 1018.0
20260905161605 35 319 1.6 6.4 0.00 0.00 0.00 48 1018.0
20260905161204 35 317 1.6 6.4 0.00 0.00 0.00 47 1018.1
20260905160405 34 311 1.6 9.7 0.00 0.00 0.00 49 1018.1
20260905155604 33 288 1.6 11.3 0.00 0.00 0.00 50 1018.2